Location: Ar Ranvel
(48.3000°N, 4.8833°W)
Time: 19:17:59
(UTC+00:00)

Tiangong - Visible Passes

Search period start: 21 September 2021 00:00
Search period end: 01 October 2021 00:00
Orbit: 380 x 385 km, 41.5° (Epoch: 20 September)

Date Brightness Start Highest point End Pass type
(mag) Time Alt. Az. Time Alt. Az. Time Alt. Az.
26 Sep 3.8 05:33:50 10° S 05:35:10 12° SSE 05:36:30 10° SE visible
28 Sep 3.4 05:09:19 10° SSW 05:11:22 16° SSE 05:13:26 10° ESE visible
29 Sep 3.8 04:11:49 12° SSE 04:11:49 12° SSE 04:12:46 10° SE visible
29 Sep 2.9 05:45:03 10° SW 05:47:37 22° S 05:50:10 10° ESE visible
30 Sep 3.0 04:46:47 18° S 04:47:38 20° S 04:50:02 10° ESE visible
